{"data":{"norad_id":55973,"intl_designator":"2023-039A","name":"TIANMU-1 03","alt_names":[],"object_type":"PAYLOAD","status":"ACTIVE","operator":null,"country":"PRC","launch_date":"2023-03-22","launch_site_code":"JSC","launch_vehicle":null,"mission":null,"orbit_class":"UNKNOWN","rcs_meters":null,"size_class":null,"mass_kg":null,"dimensions":null,"purposes":["earth_obs"],"wikipedia_slug":null,"has_3d_model":false,"image_url":null,"decayed_at":null,"tle_current":{"epoch":"2026-09-20T04:05:07.832256Z","epoch_age_seconds":42932,"freshness":"FRESH","line1":"1 55973U 23039A   26263.17022954  .00012354  00000+0  22408-3 0  9998","line2":"2 55973  97.5275  81.0714 0003634 104.6291 255.5363 15.49746516195536","mean_motion":15.49746516,"eccentricity":0.0003634,"inclination_deg":97.5275,"raan_deg":81.0714,"arg_perigee_deg":104.6291,"mean_anomaly_deg":255.5363,"bstar":0.00022408,"rev_number":19553,"period_min":92.918421505262,"perigee_km":414.99746020687,"apogee_km":419.93650518149,"semimajor_km":6795.6039826942,"source":"CELESTRAK","updated_at":"2026-09-20T09:00:33.222212Z"}}}